Showing default

UNISAT 5, 39421

Orbit data source: Space-Track

UNISAT 5, 39421 is a payload satellite owned by GAUSS SrI (IT) in SSO that was launched on Thu, 21 Nov 2013 UTC via a DNEPR launch vehicle from the Orenburg, Russia (OREN). Payload-class satellites include a variety of spacecraft equipped with specific instruments for various scientific and technological missions. These include communications satellites like Starlink; space stations such as the ISS; scientific satellites like the Hubble; Earth observation satellites from companies like Planet Labs, Umbra, and HawkEye 360; GPS; miniature CubeSats for education and research; and military/defense satellites.

Loading next visibility...
Identifier
39421, 2013-066F
Orbit
SSO
Country
Flag of ITIT
Related business
Manufacturer
GAUSS SrI
Mission
Non-operational Amateur Technology
Bus & Motor
UNISAT, Unknown motor
Mass
31 kg wet, ~19 kg dry
Launch date (UTC)
2013-11-21 (12 years ago)
Launch vehicle
DNEPR
Launch site
Orenburg, Russia (OREN)
Object type
Payload
Rocket body
Debris
Shape & HBR
Box + 4 Pan, 0.5 m
Radar Cross Section
0.238 m², Medium (>0.1 m² and < 1m²)

Expand to show TLE details & history
Last TLE update: 4 hours ago

TLE from 4 hours ago
0 UNISAT 5
1 39421U 13066F   26037.84801463  .00006186  00000-0  44975-3 0  9990
2 39421  97.6933   8.6126 0030561 168.3814 191.8124 15.03818897663075
Epoch: 2026-02-06T20:21Z
TLE epoch observation values (Epoch: 2026-02-06T20:21:08.464Z)
Latitude
0.00004°
Longitude
-73.65268°
Altitude
578.941 km
Speed
7.56 km/s
True Right ascension
00h 34m 27s
True Declination
0° 00' 00"
Sunlit
Object was in daylight at epoch
Visualization orbit readout
Latitude
Unknown
Longitude
Unknown
Altitude
Unknown
Speed
Unknown
Apparent Right ascension
Unknown
Apparent Declination
Unknown
Sunlit
N/A
Visualization observer readout
Local Sidereal Time
02:43:14
Azimuth
Unknown
Elevation
Unknown
Doppler factor
Unknown
Orbital elements
Apogee altitude
573.313 km
Perigee altitude
530.954 km
Semi-major axis
6,930.27 km
Eccentricity
0.00306
Inclination
97.6933°
RAAN
8.6126°
Arg. of periapsis
168.3814°
True anomaly
191.74098°
Mean anomaly
191.8124°
Eccentric anomaly
191.77666°
Mean motion
3.76199 °/min
Orbital period
95.69 mins
BSTAR
0.00044975
Loading maneuver chart data...
Computing Atmospheric mass density...
Loading historical data...
Loading historical data...
Loading historical data...
Loading historical data...
Loading historical data...
Loading historical data...
Loading historical data...

Documentation

Showing up to 5 results
|